This demonstration page uses our WeatherBlox Daily Observations layout. Learn more.

Left ArrowRight Arrow

Hourly Observations for January 7, 2020

Temp ( °F °C ) Dew Point ( °F °C ) Humidity (%) Winds ( mph kmh ) Pressure ( in mb ) Visibility ( mi km ) Precip ( " mm )
12:53 am 00:53 Clear 28 -2.2 21 -6.1 75 75 WNW 8 13 30.22 1023 10 16 0.00 0.00
1:53 am 01:53 Clear 27 -2.8 20 -6.7 75 75 WNW 10 17 30.23 1024 10 16 0.00 0.00
2:53 am 02:53 Clear 25 -3.9 20 -6.7 81 81 WNW 7 11 30.22 1024 10 16 0.00 0.00
3:53 am 03:53 Clear 26 -3.3 19 -7.2 75 75 WSW 6 9 30.22 1024 10 16 0.00 0.00
4:53 am 04:53 Clear 25 -3.9 19 -7.2 78 78 SW 3 6 30.21 1023 10 16 0.00 0.00
5:53 am 05:53 Mostly Cloudy 26 -3.3 20 -6.7 78 78 SW 5 7 30.22 1023 10 16 0.00 0.00
6:53 am 06:53 Mostly Clear 27 -2.8 21 -6.1 78 78 SW 7 11 30.22 1023 10 16 0.00 0.00
7:53 am 07:53 Clear 28 -2.2 20 -6.7 72 72 SSW 8 13 30.19 1022 10 16 0.00 0.00
8:53 am 08:53 Sunny 29 -1.7 20 -6.7 69 69 WSW 8 13 30.20 1023 10 16 0.00 0.00
9:53 am 09:53 Sunny 33 0.6 22 -5.6 64 64 WSW 13 20 30.21 1023 10 16 0.00 0.00
10:53 am 10:53 Sunny 37 2.8 24 -4.4 59 59 W 10 17 30.21 1023 10 16 0.00 0.00
11:53 am 11:53 Sunny 41 5 26 -3.3 55 55 W 10 17 30.18 1022 10 16 0.00 0.00
12:53 pm 12:53 Sunny 44 6.7 26 -3.3 49 49 WNW 15 24 30.17 1022 10 16 0.00 0.00
1:53 pm 13:53 Sunny 45 7.2 27 -2.8 49 49 NW 10 17 30.17 1022 10 16 0.00 0.00
2:53 pm 14:53 Sunny 46 7.8 28 -2.2 50 50 NW 8 13 30.17 1022 10 16 0.00 0.00
3:53 pm 15:53 Sunny 45 7.2 29 -1.7 54 54 WNW 5 7 30.19 1022 10 16 0.00 0.00
4:53 pm 16:53 Sunny 44 6.7 29 -1.7 55 55 N 3 6 30.21 1023 10 16 0.00 0.00
5:53 pm 17:53 Clear 38 3.3 27 -2.8 65 65 ENE 3 6 30.22 1023 10 16 0.00 0.00
6:53 pm 18:53 Clear 34 1.1 26 -3.3 73 73 E 5 7 30.22 1023 10 16 0.00 0.00
7:53 pm 19:53 Clear 30 -1.1 24 -4.4 79 79 E 5 7 30.24 1024 10 16 0.00 0.00
8:53 pm 20:53 Clear 31 -0.6 24 -4.4 76 76 E 6 9 30.24 1024 10 16 0.00 0.00
9:53 pm 21:53 Clear 32 0 25 -3.9 75 75 ENE 9 15 30.23 1024 10 16 0.00 0.00
10:53 pm 22:53 Clear 31 -0.6 25 -3.9 79 79 ENE 9 15 30.25 1024 10 16 0.00 0.00
11:53 pm 23:53 Clear 29 -1.7 24 -4.4 82 82 ENE 10 17 30.25 1025 10 16 0.00 0.00

Powered by AerisWeather